User: anonymous   Login
Location: Fort Wayne
(41.1310°N, 85.1290°W)
Time: 13:07:32
(UTC-04:00)
Language:

Meteor 2-10 Rocket - Orbit

View from above orbital plane
View from above orbital plane
View from above satellite
View from above satellite

Ground track
Ground track

The orbit data is extracted from the following two-line orbital elements,

1 14453U 83109B   15239.90593605  .00000070  00000-0  23006-4 0  9997
2 14453 081.1650 049.5052 0105189 170.3710 189.9520 14.24611653653650
Epoch (UTC): 27 August 2015 21:44:32
Eccentricity: 0.0105189
inclination: 81.1650°
perigee height: 734 km
apogee height: 885 km
right ascension of ascending node: 49.5052°
argument of perigee: 170.3710°
revolutions per day: 14.24611653
mean anomaly at epoch: 189.9520°
orbit number at epoch: 65365

The dashed part of the orbit path shows where the satellite is in the earth's shadow,  

DLR